Erie, PA

3:56 AM EST on December 09, 2019 (GMT -0500)
Erie International

Weather History for KERI - October, 2019

Change the Weather History Date:

Monday, October 14, 2019

  Actual Average Record
Temperature  
Mean Temperature 52 °F 54 °F  
Max Temperature 57 °F 61 °F 83 °F (1954)
Min Temperature 48 °F 46 °F 31 °F (1934)
Degree Days  
Heating Degree Days 12 12  
Month to date heating degree days 137  
Since 1 July heating degree days 261  
Cooling Degree Days 0 0  
Month to date cooling degree days 7  
Year to date cooling degree days 636  
Growing Degree Days 2 (Base 50)    
Moisture  
Dew Point 40 °F    
Average Humidity 66    
Maximum Humidity 83    
Minimum Humidity 42    
Precipitation  
Precipitation 0.06 in 0.13 in 1.06 in (2003)
Month to date precipitation 1.99  
Year to date precipitation 32.43  
Snow  
Snow - 0.00 in - ()
Month to date snowfall 0.0  
Since 1 July snowfall 0.0  
Since 1 September snowfall 0.0  
Snow Depth -    
Sea Level Pressure  
Sea Level Pressure 30.00 in    
Wind  
Wind Speed 7 mph ()    
Max Wind Speed 13 mph    
Max Gust Speed 22 mph    
Visibility 9.8 miles    
Events Rain    
T = Trace of Precipitation, MM = Missing Value Source: Averaged Metar Reports

Daily Weather History Graph

Daily Weather History Graph

Search for Another Location

Airport or City:

Astronomy

Oct. 14, 2019 Rise Set
Actual Time 7:31 AM EDT 6:40 PM EDT
Civil Twilight 7:03 AM EDT 7:09 PM EDT
Nautical Twilight 6:31 AM EDT 7:41 PM EDT
Astronomical Twilight 5:58 AM EDT 8:13 PM EDT
Moon 7:30 PM EDT (10/14) 8:01 AM EDT (10/14)
Length of Visible Light 12h 05m
Length of Day
11h 09m
Waxing Gibbous, 99% of the Moon is Illuminated
Oct 14
Waxing Gibbous
Oct 21
Last Quarter
Oct 27
New
Nov 4
First Quarter
Nov 12
Full

Hourly Weather History & Observations

Time (EDT) Temp. Dew Point Humidity Pressure Visibility Wind Dir Wind Speed Gust Speed Precip Events Conditions
12:51 AM 57.9 °F 35.1 °F 42% 29.86 in 10.0 mi SW 12.7 mph 21.9 mph N/A   Clear
1:51 AM 57.0 °F 37.0 °F 47% 29.86 in 10.0 mi SSW 8.1 mph - N/A   Partly Cloudy
2:51 AM 57.0 °F 37.9 °F 49% 29.87 in 10.0 mi WSW 6.9 mph - N/A   Partly Cloudy
3:51 AM 54.0 °F 41.0 °F 62% 29.89 in 10.0 mi NNW 8.1 mph - N/A   Mostly Cloudy
4:51 AM 53.1 °F 42.1 °F 66% 29.90 in 10.0 mi Calm Calm - N/A   Overcast
5:51 AM 52.0 °F 43.0 °F 71% 29.92 in 10.0 mi SSW 5.8 mph - N/A   Overcast
6:51 AM 51.1 °F 43.0 °F 74% 29.94 in 10.0 mi SW 5.8 mph - N/A   Mostly Cloudy
7:04 AM 51.1 °F 43.0 °F 74% 29.93 in 10.0 mi South 5.8 mph - N/A   Overcast
7:51 AM 51.1 °F 43.0 °F 74% 29.95 in 10.0 mi SW 5.8 mph - N/A   Overcast
8:28 AM 52.0 °F 43.0 °F 71% 29.95 in 10.0 mi Variable 5.8 mph - N/A   Overcast
8:51 AM 52.0 °F 43.0 °F 71% 29.97 in 10.0 mi SW 6.9 mph - N/A   Overcast
9:51 AM 50.0 °F 44.1 °F 80% 29.98 in 10.0 mi WSW 5.8 mph - 0.02 in Rain Light Rain
10:51 AM 50.0 °F 43.0 °F 77% 30.01 in 4.0 mi SW 6.9 mph - 0.01 in Rain Light Rain
11:51 AM 50.0 °F 45.0 °F 83% 30.02 in 10.0 mi SW 4.6 mph - 0.03 in Rain Light Rain
12:01 PM 51.1 °F 42.1 °F 71% 30.01 in 10.0 mi WSW 9.2 mph - 0.00 in Rain Light Rain
12:51 PM 51.1 °F 39.9 °F 66% 30.03 in 10.0 mi West 12.7 mph 20.7 mph 0.00 in Rain Light Rain
1:51 PM 51.1 °F 39.0 °F 63% 30.03 in 10.0 mi West 11.5 mph 18.4 mph 0.00 in Rain Light Rain
2:51 PM 51.1 °F 37.9 °F 61% 30.03 in 10.0 mi WSW 12.7 mph - 0.00 in   Overcast
4:51 PM 50.0 °F 39.9 °F 68% 30.06 in 10.0 mi SW 8.1 mph - N/A   Overcast
5:51 PM 51.1 °F 39.0 °F 63% 30.07 in 10.0 mi SW 8.1 mph - N/A   Overcast
6:51 PM 52.0 °F 37.0 °F 57% 30.07 in 10.0 mi WSW 6.9 mph - N/A   Overcast
7:51 PM 53.1 °F 37.0 °F 55% 30.09 in 10.0 mi West 11.5 mph - N/A   Overcast
8:51 PM 53.1 °F 37.0 °F 55% 30.09 in 10.0 mi WSW 9.2 mph - N/A   Overcast
9:51 PM 50.0 °F 39.0 °F 66% 30.11 in 10.0 mi Variable 5.8 mph - N/A   Overcast
10:51 PM 48.9 °F 39.9 °F 71% 30.12 in 10.0 mi SW 4.6 mph - N/A   Overcast
11:51 PM 48.0 °F 39.0 °F 71% 30.12 in 10.0 mi Variable 4.6 mph - N/A   Overcast